M I D A S
Marine Information and Data Acquisition System
Tripno 1035 of the Zeeleeuw from 2006-02-23 09:23:43 to 2006-02-23 15:21:12
Back to CruiseResearch ActivitiesStationsMapUnderway DataData graphs

EquipmentUnitsComment
TimeDGPSUTC
LatitudeDGPSDM.mWGS84
LongitudeDGPSDM.mWGS84
TemperatureSBE03/SBE38deg celciusITS90
ConductivitySBE21S/mITS90
SalinitySBE21 Practical Salinity Units
ChlorophylAChelsea fluorimeterg/lCalibrated in Aceton
Missing or incorrect values are displayed as -999
Sea surface data collected by the RV Zeeleeuw from 2006-02-23 07:19:30 to 2006-02-23 15:32:57
Time Latitude Longitude Temperature Conductivity Salinity ChlorophylA
2006-02-23 07:20:35 51°13.598 2°56.094 -999 4.091169 30.959285 -0.107061
2006-02-23 07:21:35 51°13.598 2°56.093 -999 4.091065 30.957804 -0.107061
2006-02-23 07:22:35 51°13.598 2°56.094 -999 4.091065 30.957197 -0.107061
2006-02-23 07:23:35 51°13.598 2°56.093 -999 4.091065 30.95659 -0.107061
2006-02-23 07:24:35 51°13.598 2°56.094 -999 4.091065 30.955983 -0.107061
2006-02-23 07:25:35 51°13.599 2°56.094 -999 4.090961 30.954501 -0.107061
2006-02-23 07:26:35 51°13.599 2°56.095 -999 4.090961 30.954501 -0.107061
2006-02-23 07:27:35 51°13.599 2°56.094 -999 4.090961 30.953894 -0.14077
2006-02-23 07:28:35 51°13.599 2°56.094 -999 4.090858 30.952413 -0.107061
2006-02-23 07:29:35 51°13.599 2°56.095 -999 4.090858 30.952413 -0.107061
2006-02-23 07:30:35 51°13.599 2°56.095 -999 4.090754 30.950932 -0.14077
2006-02-23 07:31:35 51°13.599 2°56.095 -999 4.09065 30.950057 -0.14077
2006-02-23 07:32:35 51°13.599 2°56.095 -999 4.09065 30.949451 -0.14077
2006-02-23 07:33:35 51°13.599 2°56.096 -999 4.090547 30.948576 -0.14077
2006-02-23 07:34:35 51°13.598 2°56.096 -999 4.090443 30.947702 -0.14077
2006-02-23 07:35:35 51°13.598 2°56.096 -999 4.090339 30.946221 -0.14077
2006-02-23 07:36:35 51°13.599 2°56.097 -999 4.090339 30.946221 -0.14077
2006-02-23 07:37:34 51°13.599 2°56.097 -999 4.090236 30.945346 -0.14077
2006-02-23 07:38:32 51°13.598 2°56.097 -999 4.090132 30.944472 -0.14077
2006-02-23 07:39:32 51°13.599 2°56.096 -999 4.090028 30.943598 -0.14077
2006-02-23 07:40:32 51°13.599 2°56.096 -999 4.089925 30.942723 -0.14077
2006-02-23 07:41:32 51°13.599 2°56.095 -999 4.089925 30.942723 -0.14077
2006-02-23 07:42:33 51°13.599 2°56.094 -999 4.089821 30.941243 -0.14077
2006-02-23 07:43:32 51°13.598 2°56.094 -999 4.089717 30.940368 -0.14077
2006-02-23 07:44:32 51°13.598 2°56.094 -999 4.089614 30.939494 -0.14077
2006-02-23 07:45:32 51°13.599 2°56.094 -999 4.08951 30.93862 -0.14077
2006-02-23 07:46:32 51°13.599 2°56.094 -999 4.089406 30.937745 -0.14077
2006-02-23 07:47:32 51°13.599 2°56.094 -999 4.089302 30.936871 -0.14077
2006-02-23 07:48:32 51°13.599 2°56.094 -999 4.089199 30.935997 -0.14077
2006-02-23 07:49:33 51°13.597 2°56.092 -999 4.089095 30.935729 -0.14077
2006-02-23 07:50:32 51°13.597 2°56.092 -999 4.088991 30.934855 -0.14077
2006-02-23 07:51:32 51°13.597 2°56.092 -999 4.088784 30.933713 -0.14077
2006-02-23 07:52:32 51°13.597 2°56.093 -999 4.08868 30.933445 -0.14077
2006-02-23 07:53:32 51°13.598 2°56.093 -999 4.088577 30.933177 -0.14077
2006-02-23 07:54:32 51°13.598 2°56.093 -999 4.088369 30.931428 -0.14077
2006-02-23 07:55:32 51°13.597 2°56.094 -999 4.088266 30.931767 -0.14077
2006-02-23 07:56:32 51°13.598 2°56.094 -999 4.088058 30.930624 -0.14077
2006-02-23 07:57:32 51°13.598 2°56.094 -999 4.087851 30.929482 -0.14077
2006-02-23 07:58:32 51°13.598 2°56.094 -999 4.087644 30.928946 -0.17448
2006-02-23 07:59:32 51°13.597 2°56.095 -999 4.087436 30.927804 -0.14077
2006-02-23 08:00:32 51°13.598 2°56.094 -999 4.087229 30.926662 -0.14077
2006-02-23 08:01:32 51°13.598 2°56.094 -999 4.087125 30.927 -0.17448
2006-02-23 08:02:32 51°13.598 2°56.094 -999 4.086918 30.925858 -0.17448
2006-02-23 08:03:32 51°13.598 2°56.094 -999 4.086711 30.925322 -0.14077
2006-02-23 08:04:32 51°13.597 2°56.093 -999 4.086503 30.924786 -0.17448
2006-02-23 08:05:32 51°13.597 2°56.094 -999 4.086296 30.923643 -0.14077
2006-02-23 08:06:32 51°13.597 2°56.095 -999 4.085985 30.922233 -0.17448
2006-02-23 08:07:32 51°13.598 2°56.095 -999 4.085778 30.921696 -0.17448
2006-02-23 08:08:32 51°13.598 2°56.095 -999 4.085467 30.920286 -0.17448
2006-02-23 08:09:32 51°13.597 2°56.095 -999 4.085259 30.91975 -0.17448
2006-02-23 08:10:32 51°13.597 2°56.095 -999 4.085052 30.91982 -0.17448
2006-02-23 08:11:32 51°13.597 2°56.095 -999 4.084741 30.917802 -0.17448
2006-02-23 08:12:32 51°13.597 2°56.095 -999 4.084534 30.917873 -0.17448
2006-02-23 08:13:32 51°13.597 2°56.095 -999 4.084223 30.916462 -0.17448
2006-02-23 08:14:32 51°13.598 2°56.095 -999 4.084016 30.916532 -0.17448
2006-02-23 08:15:32 51°13.598 2°56.094 -999 4.083705 30.915728 -0.17448
2006-02-23 08:16:32 51°13.598 2°56.094 -999 4.083394 30.914923 -0.17448
2006-02-23 08:17:32 51°13.598 2°56.094 -999 4.083083 30.913512 -0.17448
2006-02-23 08:18:32 51°13.599 2°56.094 -999 4.082772 30.912707 -0.17448
2006-02-23 08:19:32 51°13.599 2°56.094 -999 4.082461 30.911903 -0.17448
2006-02-23 08:20:32 51°13.599 2°56.095 -999 4.082046 30.910223 -0.17448
2006-02-23 08:21:32 51°13.599 2°56.095 -999 4.081735 30.909418 -0.17448
2006-02-23 08:22:32 51°13.599 2°56.094 -999 4.081424 30.908613 -0.17448
2006-02-23 08:23:33 51°13.599 2°56.094 -999 4.081113 30.907808 -0.17448
2006-02-23 08:24:32 51°13.598 2°56.094 -999 4.080802 30.907003 -0.17448
2006-02-23 08:25:32 51°13.597 2°56.094 -999 4.080491 30.905591 -0.208189
2006-02-23 08:26:32 51°13.597 2°56.094 -999 4.080076 30.903911 -0.208189
2006-02-23 08:27:32 51°13.597 2°56.094 -999 4.079765 30.903106 -0.17448
2006-02-23 08:28:32 51°13.596 2°56.095 -999 4.079454 30.902301 -0.208189
2006-02-23 08:29:32 51°13.597 2°56.096 -999 4.079143 30.901496 -0.208189
2006-02-23 08:30:32 51°13.597 2°56.095 -999 4.078832 30.90069 -0.208189
2006-02-23 08:31:32 51°13.598 2°56.094 -999 4.078521 30.899885 -0.208189
2006-02-23 08:32:32 51°13.599 2°56.094 -999 4.07821 30.89908 -0.208189
2006-02-23 08:33:32 51°13.599 2°56.094 -999 4.077899 30.898881 -0.208189
2006-02-23 08:34:32 51°13.598 2°56.093 -999 4.077588 30.898076 -0.208189
2006-02-23 08:35:32 51°13.597 2°56.093 -999 4.077174 30.897002 -0.208189
2006-02-23 08:36:32 51°13.597 2°56.093 -999 4.076863 30.896196 -0.208189
2006-02-23 08:37:33 51°13.597 2°56.094 -999 4.076448 30.895122 -0.208189
2006-02-23 08:38:32 51°13.597 2°56.094 -999 4.076137 30.894317 -0.208189
2006-02-23 08:39:33 51°13.598 2°56.094 -999 4.075722 30.893242 -0.208189
2006-02-23 08:40:32 51°13.598 2°56.094 -999 4.075411 30.893044 -0.208189
2006-02-23 08:41:32 51°13.598 2°56.094 -999 4.074997 30.89197 -0.208189
2006-02-23 08:42:32 51°13.597 2°56.094 -999 4.074686 30.891164 -0.208189
2006-02-23 08:43:32 51°13.597 2°56.094 -999 4.074271 30.889482 -0.208189
2006-02-23 08:44:32 51°13.598 2°56.094 -999 4.073857 30.888407 -0.241899
2006-02-23 08:45:32 51°13.596 2°56.094 -999 4.073546 30.888816 -0.241899
2006-02-23 08:46:32 51°13.598 2°56.094 -999 4.073131 30.887741 -0.241899
2006-02-23 08:47:32 51°13.599 2°56.094 -999 4.072716 30.886667 -0.241899
2006-02-23 08:48:33 51°13.599 2°56.094 -999 4.072302 30.885592 -0.241899
2006-02-23 08:49:32 51°13.599 2°56.094 -999 4.071887 30.885125 -0.241899
2006-02-23 08:50:32 51°13.6 2°56.093 -999 4.071472 30.884657 -0.241899
2006-02-23 08:51:32 51°13.6 2°56.094 -999 4.071058 30.883582 -0.241899
2006-02-23 08:52:33 51°13.598 2°56.093 -999 4.070643 30.882507 -0.241899
2006-02-23 08:53:32 51°13.599 2°56.093 -999 4.070228 30.88204 -0.241899
2006-02-23 08:54:32 51°13.599 2°56.093 -999 4.069814 30.880965 -0.241899
2006-02-23 08:55:33 51°13.599 2°56.093 -999 4.069399 30.879889 -0.241899
2006-02-23 08:56:32 51°13.6 2°56.094 -999 4.068985 30.878814 -0.241899
2006-02-23 08:57:32 51°13.599 2°56.094 -999 4.06857 30.878347 -0.241899
2006-02-23 08:58:31 51°13.599 2°56.094 -999 4.068155 30.877271 -0.275608
2006-02-23 08:59:31 51°13.599 2°56.094 -999 4.067741 30.876196 -0.275608
2006-02-23 09:00:31 51°13.599 2°56.094 -999 4.067222 30.874851 -0.275608
2006-02-23 09:01:31 51°13.599 2°56.094 -999 4.066911 30.874652 -0.275608
2006-02-23 09:02:31 51°13.599 2°56.094 -999 4.066393 30.873308 -0.275608
2006-02-23 09:03:31 51°13.599 2°56.094 -999 4.065978 30.87284 -0.275608
2006-02-23 09:04:31 51°13.599 2°56.094 -999 4.06546 30.871495 -0.275608
2006-02-23 09:05:31 51°13.598 2°56.094 -999 4.065046 30.871027 -0.275608
2006-02-23 09:06:32 51°13.598 2°56.094 -999 4.064527 30.869682 -0.275608
2006-02-23 09:07:31 51°13.598 2°56.094 -999 4.064113 30.869215 -0.275608
2006-02-23 09:08:32 51°13.598 2°56.094 -999 4.063698 30.868138 -0.275608
2006-02-23 09:09:31 51°13.598 2°56.094 -999 4.063283 30.867671 -0.275608
2006-02-23 09:10:31 51°13.599 2°56.094 -999 3.75345 30.068486 1.578409
2006-02-23 09:11:31 51°13.599 2°56.094 -999 2.239019 21.011355 0.39858
2006-02-23 09:12:31 51°13.603 2°56.074 -999 2.214963 21.110369 0.263742
2006-02-23 09:13:31 51°13.626 2°55.994 -999 2.455318 24.668985 1.5447
2006-02-23 09:14:32 51°13.653 2°55.9 -999 2.494996 25.505224 1.039059
2006-02-23 09:15:31 51°13.693 2°55.802 -999 2.480429 25.484736 0.803093
2006-02-23 09:16:31 51°13.721 2°55.72 -999 2.521862 26.025015 0.836802
2006-02-23 09:17:32 51°13.723 2°55.726 -999 2.485596 25.636388 0.668255
2006-02-23 09:18:31 51°13.722 2°55.703 -999 2.459458 25.362412 0.634546
2006-02-23 09:19:32 51°13.773 2°55.675 -999 2.445304 25.215743 0.668255
2006-02-23 09:20:31 51°13.859 2°55.614 -999 2.43642 25.124919 1.039059
2006-02-23 09:21:32 51°13.992 2°55.516 -999 2.480844 25.641591 0.836802
2006-02-23 09:22:32 51°14.121 2°55.415 -999 2.534056 26.279385 1.140187
2006-02-23 09:23:31 51°14.239 2°55.288 -999 2.578179 26.803075 1.679537
2006-02-23 09:24:31 51°14.354 2°55.071 -999 2.59368 26.99381 1.106477
2006-02-23 09:25:31 51°14.514 2°54.878 -999 2.651242 27.321182 0.836802
2006-02-23 09:26:31 51°14.706 2°54.72 -999 2.75492 28.826769 0.196324
2006-02-23 09:27:31 51°14.893 2°54.551 -999 2.842696 29.917634 -0.17448
2006-02-23 09:28:31 51°15.067 2°54.353 -999 2.859447 30.147939 -0.275608
2006-02-23 09:29:31 51°15.231 2°54.127 -999 2.866995 30.257339 -0.309317
2006-02-23 09:30:31 51°15.398 2°53.903 -999 2.850141 30.065708 -0.309317
2006-02-23 09:31:31 51°15.565 2°53.679 -999 2.865134 30.231172 -0.309317
2006-02-23 09:32:31 51°15.732 2°53.454 -999 2.856759 30.162468 -0.343027
2006-02-23 09:33:31 51°15.905 2°53.235 -999 2.860274 30.225935 -0.343027
2006-02-23 09:34:31 51°16.082 2°53.028 -999 2.861825 30.253941 -0.376736
2006-02-23 09:35:31 51°16.261 2°52.828 -999 2.87899 30.422379 -0.376736
2006-02-23 09:36:31 51°16.446 2°52.638 -999 2.892226 30.565787 -0.410446
2006-02-23 09:37:31 51°16.629 2°52.448 -999 2.891812 30.560053 -0.410446
2006-02-23 09:38:31 51°16.814 2°52.263 -999 2.893777 30.596641 -0.410446
2006-02-23 09:39:31 51°17 2°52.075 -999 2.892639 30.587931 -0.410446
2006-02-23 09:40:31 51°17.187 2°51.887 -999 2.887159 30.536745 -0.410446
2006-02-23 09:41:31 51°17.373 2°51.695 -999 2.880128 30.460159 -0.444155
2006-02-23 09:42:31 51°17.558 2°51.504 -999 2.890882 30.603016 -0.444155
2006-02-23 09:43:31 51°17.685 2°51.232 -999 2.915907 30.898261 -0.410446
2006-02-23 09:44:31 51°17.754 2°50.907 -999 2.914666 30.889283 -0.410446
2006-02-23 09:45:31 51°17.826 2°50.582 -999 2.908358 30.810907 -0.410446
2006-02-23 09:46:31 51°17.899 2°50.258 -999 2.901947 30.747896 -0.410446
2006-02-23 09:47:31 51°17.97 2°49.933 -999 2.907738 30.830355 -0.410446
2006-02-23 09:48:31 51°18.048 2°49.609 -999 2.897397 30.711218 -0.410446
2006-02-23 09:49:31 51°18.124 2°49.284 -999 2.923973 31.004657 -0.309317
2006-02-23 09:50:31 51°18.203 2°48.963 -999 2.944656 31.190032 -0.275608
2006-02-23 09:51:31 51°18.281 2°48.639 -999 2.941864 31.172251 -0.343027
2006-02-23 09:52:31 51°18.366 2°48.319 -999 2.951689 31.313383 -0.343027
2006-02-23 09:53:31 51°18.45 2°47.998 -999 2.95717 31.353261 -0.343027
2006-02-23 09:54:31 51°18.537 2°47.676 -999 2.96503 31.429369 -0.343027
2006-02-23 09:55:31 51°18.624 2°47.357 -999 2.972269 31.465348 -0.343027
2006-02-23 09:56:31 51°18.71 2°47.036 -999 2.986541 31.591858 -0.343027
2006-02-23 09:57:31 51°18.794 2°46.714 -999 2.980646 31.502366 -0.343027
2006-02-23 09:58:31 51°18.888 2°46.396 -999 2.996574 31.671464 -0.376736
2006-02-23 09:59:31 51°18.981 2°46.076 -999 2.989851 31.5864 -0.410446
2006-02-23 10:00:31 51°19.077 2°45.758 -999 2.995953 31.662337 -0.444155
2006-02-23 10:01:31 51°19.173 2°45.44 -999 2.975061 31.427831 -0.444155
2006-02-23 10:02:31 51°19.27 2°45.124 -999 2.98861 31.594427 -0.444155
2006-02-23 10:03:31 51°19.363 2°44.804 -999 2.997194 31.69848 -0.410446
2006-02-23 10:04:31 51°19.454 2°44.479 -999 3.000091 31.742702 -0.410446
2006-02-23 10:05:31 51°19.542 2°44.154 -999 3.005986 31.808802 -0.444155
2006-02-23 10:06:31 51°19.63 2°43.832 -999 3.022535 31.953964 -0.477864
2006-02-23 10:07:31 51°19.718 2°43.511 -999 3.02088 31.930836 -0.477864
2006-02-23 10:08:31 51°19.807 2°43.193 -999 3.017053 31.898433 -0.477864
2006-02-23 10:09:31 51°19.9 2°42.875 -999 3.017777 31.902159 -0.477864
2006-02-23 10:10:31 51°19.992 2°42.554 -999 3.008468 31.802856 -0.477864
2006-02-23 10:11:31 51°20.085 2°42.233 -999 3.008675 31.813774 -0.477864
2006-02-23 10:12:31 51°20.178 2°41.911 -999 3.01033 31.838787 -0.477864
2006-02-23 10:13:31 51°20.254 2°41.577 -999 3.013226 31.870747 -0.477864
2006-02-23 10:14:31 51°20.299 2°41.228 -999 3.013123 31.872378 -0.477864
2006-02-23 10:15:31 51°20.336 2°40.883 -999 3.017157 31.929975 -0.511574
2006-02-23 10:16:31 51°20.364 2°40.541 -999 3.019743 31.962122 -0.511574
2006-02-23 10:17:31 51°20.391 2°40.199 -999 3.022535 31.986241 -0.545283
2006-02-23 10:18:31 51°20.421 2°39.857 -999 3.026983 32.026855 -0.511574
2006-02-23 10:19:31 51°20.454 2°39.516 -999 3.030086 32.053631 -0.545283
2006-02-23 10:20:31 51°20.49 2°39.173 -999 3.023053 31.987539 -0.545283
2006-02-23 10:21:31 51°20.523 2°38.832 -999 3.024604 32.017099 -0.545283
2006-02-23 10:22:31 51°20.557 2°38.492 -999 3.023777 32.011222 -0.545283
2006-02-23 10:23:31 51°20.593 2°38.15 -999 3.018915 31.96194 -0.511574
2006-02-23 10:24:31 51°20.63 2°37.806 -999 3.016847 31.954833 -0.511574
2006-02-23 10:25:31 51°20.667 2°37.458 -999 3.019123 32.000512 -0.511574
2006-02-23 10:26:31 51°20.7 2°37.113 -999 3.033293 32.137888 -0.511574
2006-02-23 10:27:31 51°20.732 2°36.774 -999 3.038983 32.23137 -0.511574
2006-02-23 10:28:31 51°20.768 2°36.436 -999 3.038465 32.233941 -0.511574
2006-02-23 10:29:31 51°20.803 2°36.098 -999 3.04281 32.272411 -0.511574
2006-02-23 10:30:31 51°20.833 2°35.756 -999 3.042913 32.254426 -0.545283
2006-02-23 10:31:31 51°20.866 2°35.413 -999 3.03712 32.185591 -0.545283
2006-02-23 10:32:31 51°20.901 2°35.069 -999 3.03681 32.206859 -0.545283
2006-02-23 10:33:31 51°20.995 2°34.758 -999 3.025536 32.077563 -0.545283
2006-02-23 10:34:31 51°21.154 2°34.507 -999 3.031432 32.169654 -0.545283
2006-02-23 10:35:31 51°21.308 2°34.252 -999 3.034949 32.220514 -0.545283
2006-02-23 10:36:31 51°21.46 2°33.997 -999 3.038362 32.25001 -0.578993
2006-02-23 10:37:31 51°21.612 2°33.742 -999 3.047361 32.328676 -0.545283
2006-02-23 10:38:31 51°21.764 2°33.486 -999 3.048809 32.345664 -0.578993
2006-02-23 10:39:31 51°21.914 2°33.228 -999 3.057809 32.412674 -0.578993
2006-02-23 10:40:31 51°22.068 2°32.968 -999 3.057395 32.419388 -0.578993
2006-02-23 10:41:31 51°22.218 2°32.706 -999 3.061119 32.458234 -0.578993
2006-02-23 10:42:31 51°22.373 2°32.446 -999 3.072187 32.540659 -0.578993
2006-02-23 10:43:31 51°22.524 2°32.178 -999 3.075601 32.564222 -0.578993
2006-02-23 10:44:31 51°22.602 2°31.855 -999 3.073842 32.553286 -0.578993
2006-02-23 10:45:31 51°22.587 2°31.52 -999 3.109842 32.822437 -0.545283
2006-02-23 10:46:31 51°22.574 2°31.183 -999 3.121325 32.904122 -0.545283
2006-02-23 10:47:31 51°22.566 2°30.844 -999 3.121842 32.903366 -0.545283
2006-02-23 10:48:31 51°22.561 2°30.502 -999 3.122463 32.908667 -0.545283
2006-02-23 10:49:31 51°22.556 2°30.159 -999 3.120807 32.900997 -0.545283
2006-02-23 10:50:31 51°22.549 2°29.818 -999 3.118635 32.890196 -0.545283
2006-02-23 10:51:31 51°22.546 2°29.474 -999 3.110255 32.825331 -0.545283
2006-02-23 10:52:31 51°22.542 2°29.132 -999 3.103531 32.776816 -0.545283
2006-02-23 10:53:31 51°22.54 2°28.791 -999 3.101152 32.760633 -0.545283
2006-02-23 10:54:31 51°22.541 2°28.449 -999 3.101048 32.75458 -0.545283
2006-02-23 10:55:31 51°22.538 2°28.103 -999 3.100531 32.747567 -0.545283
2006-02-23 10:56:31 51°22.536 2°27.758 -999 3.103841 32.776567 -0.578993
2006-02-23 10:57:31 51°22.534 2°27.413 -999 3.104773 32.78454 -0.545283
2006-02-23 10:58:31 51°22.533 2°27.066 -999 3.106531 32.796367 -0.545283
2006-02-23 10:59:31 51°22.533 2°26.719 -999 3.112428 32.839068 -0.545283
2006-02-23 11:00:31 51°22.533 2°26.373 -999 3.118325 32.878814 -0.578993
2006-02-23 11:01:31 51°22.533 2°26.026 -999 3.120083 32.890607 -0.578993
2006-02-23 11:02:31 51°22.536 2°25.679 -999 3.124739 32.930365 -0.578993
2006-02-23 11:03:31 51°22.629 2°25.365 -999 3.13136 32.97554 -0.578993
2006-02-23 11:04:31 51°22.815 2°25.179 -999 3.135395 33.008002 -0.578993
2006-02-23 11:05:31 51°23.034 2°25.114 -999 3.136326 33.024685 -0.578993
2006-02-23 11:06:31 51°23.259 2°25.136 -999 3.139843 33.059854 -0.578993
2006-02-23 11:07:31 51°23.482 2°25.102 -999 3.144396 33.090525 -0.578993
2006-02-23 11:08:31 51°23.703 2°25.061 -999 3.147086 33.118947 -0.578993
2006-02-23 11:09:31 51°23.923 2°25.022 -999 3.147913 33.124695 -0.578993
2006-02-23 11:10:31 51°24.143 2°24.987 -999 3.150707 33.148471 -0.578993
2006-02-23 11:11:31 51°24.363 2°24.977 -999 3.151741 33.158574 -0.578993
2006-02-23 11:12:31 51°24.582 2°25.004 -999 3.159708 33.211374 -0.578993
2006-02-23 11:13:31 51°24.801 2°25.04 -999 3.176676 33.314101 -0.578993
2006-02-23 11:14:31 51°25.021 2°25.074 -999 3.164674 33.249665 -0.578993
2006-02-23 11:15:31 51°25.243 2°25.105 -999 3.15919 33.216079 -0.578993
2006-02-23 11:16:31 51°25.467 2°25.141 -999 3.154535 33.189167 -0.578993
2006-02-23 11:17:31 51°25.691 2°25.17 -999 3.153293 33.182506 -0.578993
2006-02-23 11:18:31 51°25.914 2°25.206 -999 3.150914 33.169407 -0.578993
2006-02-23 11:19:31 51°26.138 2°25.25 -999 3.154017 33.185091 -0.578993
2006-02-23 11:20:31 51°26.353 2°25.364 -999 3.153707 33.186353 -0.578993
2006-02-23 11:21:31 51°26.564 2°25.485 -999 3.164984 33.261083 -0.578993
2006-02-23 11:22:31 51°26.776 2°25.601 -999 3.171813 33.310269 -0.612702
2006-02-23 11:23:31 51°26.987 2°25.71 -999 3.200887 33.487696 -0.578993
2006-02-23 11:24:31 51°27.198 2°25.823 -999 3.208854 33.532144 -0.578993
2006-02-23 11:25:31 51°27.408 2°25.934 -999 3.211751 33.548107 -0.578993
2006-02-23 11:26:31 51°27.618 2°26.042 -999 3.210303 33.536221 -0.578993
2006-02-23 11:27:31 51°27.83 2°26.151 -999 3.208958 33.528459 -0.578993
2006-02-23 11:28:31 51°28.04 2°26.257 -999 3.208233 33.523002 -0.578993
2006-02-23 11:29:31 51°28.25 2°26.372 -999 3.205026 33.504405 -0.578993
2006-02-23 11:30:31 51°28.448 2°26.526 -999 3.204095 33.502405 -0.578993
2006-02-23 11:31:31 51°28.633 2°26.695 -999 3.205129 33.508533 -0.612702
2006-02-23 11:32:31 51°28.691 2°26.825 -999 3.206164 33.521496 -0.612702
2006-02-23 11:33:31 51°28.704 2°26.842 -999 3.20813 33.538409 -0.612702
2006-02-23 11:34:31 51°28.715 2°26.842 -999 3.211441 33.557213 -0.578993
2006-02-23 11:35:31 51°28.725 2°26.837 -999 3.216615 33.589739 -0.578993
2006-02-23 11:36:31 51°28.733 2°26.825 -999 3.219409 33.603497 -0.578993
2006-02-23 11:37:31 51°28.739 2°26.812 -999 3.219719 33.605133 -0.578993
2006-02-23 11:38:31 51°28.744 2°26.799 -999 3.221064 33.612875 -0.578993
2006-02-23 11:39:31 51°28.748 2°26.787 -999 3.222099 33.617025 -0.578993
2006-02-23 11:40:31 51°28.752 2°26.774 -999 3.221788 33.614412 -0.578993
2006-02-23 11:41:31 51°28.755 2°26.762 -999 3.22272 33.619318 -0.578993
2006-02-23 11:42:31 51°28.76 2°26.75 -999 3.22303 33.620954 -0.578993
2006-02-23 11:43:31 51°28.764 2°26.738 -999 3.222823 33.619538 -0.578993
2006-02-23 11:44:31 51°28.769 2°26.726 -999 3.222202 33.61529 -0.578993
2006-02-23 11:45:31 51°28.774 2°26.714 -999 3.222306 33.614533 -0.578993
2006-02-23 11:46:31 51°28.779 2°26.701 -999 3.222513 33.614972 -0.578993
2006-02-23 11:47:31 51°28.785 2°26.688 -999 3.222513 33.613996 -0.578993
2006-02-23 11:48:31 51°28.792 2°26.674 -999 3.221685 33.609309 -0.578993
2006-02-23 11:49:31 51°28.799 2°26.659 -999 3.220443 33.603741 -0.578993
2006-02-23 11:50:31 51°28.806 2°26.646 -999 3.218788 33.592408 -0.578993
2006-02-23 11:51:31 51°28.813 2°26.633 -999 3.21589 33.570613 -0.578993
2006-02-23 11:52:31 51°28.817 2°26.62 -999 3.214131 33.560026 -0.578993
2006-02-23 11:53:31 51°28.822 2°26.607 -999 3.213304 33.555329 -0.578993
2006-02-23 11:54:31 51°28.825 2°26.592 -999 3.212579 33.553782 -0.578993
2006-02-23 11:55:31 51°28.828 2°26.577 -999 3.211648 33.548863 -0.578993
2006-02-23 11:56:31 51°28.83 2°26.563 -999 3.211544 33.546688 -0.578993
2006-02-23 11:57:31 51°28.833 2°26.551 -999 3.210924 33.542431 -0.578993
2006-02-23 11:58:31 51°28.836 2°26.538 -999 3.210303 33.540127 -0.578993
2006-02-23 11:59:31 51°28.838 2°26.524 -999 3.210406 33.540348 -0.578993
2006-02-23 12:00:32 51°28.847 2°26.504 -999 3.209785 33.53609 -0.578993
2006-02-23 12:01:31 51°28.92 2°26.476 -999 3.209268 33.531077 -0.578993
2006-02-23 12:02:31 51°29.067 2°26.446 -999 3.20813 33.526686 -0.578993
2006-02-23 12:03:31 51°29.236 2°26.5 -999 3.214545 33.566768 -0.578993
2006-02-23 12:04:31 51°29.376 2°26.701 -999 3.2251 33.635108 -0.578993
2006-02-23 12:05:31 51°29.517 2°26.95 -999 3.23255 33.679176 -0.578993
2006-02-23 12:06:31 51°29.686 2°27.15 -999 3.234723 33.694498 -0.578993
2006-02-23 12:07:31 51°29.895 2°27.224 -999 3.235861 33.698846 -0.578993
2006-02-23 12:08:31 51°30.108 2°27.282 -999 3.235965 33.703949 -0.578993
2006-02-23 12:09:31 51°30.322 2°27.341 -999 3.236482 33.708945 -0.578993
2006-02-23 12:10:31 51°30.534 2°27.405 -999 3.23762 33.719154 -0.578993
2006-02-23 12:11:31 51°30.745 2°27.477 -999 3.238448 33.726756 -0.578993
2006-02-23 12:12:31 51°30.949 2°27.588 -999 3.238345 33.728494 -0.578993
2006-02-23 12:13:31 51°31.147 2°27.723 -999 3.238862 33.73349 -0.578993
2006-02-23 12:14:31 51°31.347 2°27.856 -999 3.240414 33.744563 -0.578993
2006-02-23 12:15:31 51°31.544 2°27.997 -999 3.24 33.742719 -0.578993
2006-02-23 12:16:31 51°31.74 2°28.15 -999 3.23762 33.729911 -0.578993
2006-02-23 12:17:32 51°31.934 2°28.316 -999 3.237724 33.734041 -0.578993
2006-02-23 12:18:31 51°32.121 2°28.476 -999 3.239483 33.74555 -0.578993
2006-02-23 12:19:31 51°32.313 2°28.637 -999 3.23969 33.74794 -0.578993
2006-02-23 12:20:31 51°32.504 2°28.797 -999 3.235758 33.726986 -0.578993
2006-02-23 12:21:31 51°32.697 2°28.957 -999 3.235861 33.730139 -0.578993
2006-02-23 12:22:31 51°32.89 2°29.12 -999 3.240414 33.756305 -0.578993
2006-02-23 12:23:31 51°33.083 2°29.279 -999 3.243105 33.775624 -0.578993
2006-02-23 12:24:31 51°33.274 2°29.445 -999 3.246106 33.793621 -0.578993
2006-02-23 12:25:31 51°33.464 2°29.61 -999 3.248072 33.804562 -0.578993
2006-02-23 12:26:31 51°33.656 2°29.775 -999 3.252522 33.830437 -0.578993
2006-02-23 12:27:31 51°33.847 2°29.942 -999 3.254074 33.839526 -0.545283
2006-02-23 12:28:31 51°34.037 2°30.11 -999 3.254074 33.841484 -0.545283
2006-02-23 12:29:31 51°34.225 2°30.282 -999 3.256764 33.854879 -0.545283
2006-02-23 12:30:31 51°34.412 2°30.457 -999 3.257075 33.855521 -0.545283
2006-02-23 12:31:31 51°34.6 2°30.632 -999 3.261732 33.886663 -0.545283
2006-02-23 12:32:31 51°34.79 2°30.803 -999 3.265664 33.914331 -0.545283
2006-02-23 12:33:31 51°34.977 2°30.987 -999 3.264526 33.907097 -0.545283
2006-02-23 12:34:31 51°35.163 2°31.172 -999 3.266492 33.922886 -0.545283
2006-02-23 12:35:31 51°35.347 2°31.361 -999 3.273011 33.962675 -0.545283
2006-02-23 12:36:31 51°35.531 2°31.546 -999 3.281601 34.014448 -0.545283
2006-02-23 12:37:31 51°35.715 2°31.733 -999 3.285119 34.035298 -0.545283
2006-02-23 12:38:31 51°35.9 2°31.92 -999 3.286465 34.047818 -0.545283
2006-02-23 12:39:31 51°36.086 2°32.107 -999 3.28543 34.043765 -0.545283
2006-02-23 12:40:31 51°36.267 2°32.306 -999 3.282015 34.026067 -0.545283
2006-02-23 12:41:31 51°36.447 2°32.504 -999 3.281083 34.019277 -0.545283
2006-02-23 12:42:31 51°36.626 2°32.7 -999 3.306128 34.167681 -0.545283
2006-02-23 12:43:31 51°36.805 2°32.896 -999 3.319582 34.247336 -0.545283
2006-02-23 12:44:31 51°36.983 2°33.092 -999 3.323412 34.269601 -0.545283
2006-02-23 12:45:31 51°37.143 2°33.321 -999 3.317202 34.235764 -0.545283
2006-02-23 12:46:31 51°37.227 2°33.63 -999 3.312234 34.209246 -0.545283
2006-02-23 12:47:31 51°37.256 2°33.968 -999 3.303127 34.159729 -0.545283
2006-02-23 12:48:31 51°37.277 2°34.307 -999 3.290811 34.085018 -0.545283
2006-02-23 12:49:31 51°37.201 2°34.608 -999 3.332209 34.314349 -0.545283
2006-02-23 12:50:31 51°37.036 2°34.803 -999 3.363053 34.486938 -0.545283
2006-02-23 12:51:31 51°36.827 2°34.856 -999 3.358084 34.455817 -0.545283
2006-02-23 12:52:31 51°36.621 2°34.943 -999 3.342455 34.365746 -0.545283
2006-02-23 12:53:31 51°36.419 2°35.052 -999 3.334589 34.320979 -0.545283
2006-02-23 12:54:31 51°36.218 2°35.153 -999 3.323515 34.253152 -0.511574
2006-02-23 12:55:31 51°36.015 2°35.253 -999 3.299091 34.113426 -0.511574
2006-02-23 12:56:32 51°35.811 2°35.367 -999 3.291536 34.072756 -0.511574
2006-02-23 12:57:31 51°35.614 2°35.483 -999 3.289673 34.06214 -0.511574
2006-02-23 12:58:31 51°35.411 2°35.599 -999 3.286982 34.046905 -0.511574
2006-02-23 12:59:31 51°35.211 2°35.721 -999 3.285947 34.039913 -0.511574
2006-02-23 13:00:31 51°35.008 2°35.828 -999 3.280773 34.011787 -0.477864
2006-02-23 13:01:31 51°34.806 2°35.936 -999 3.277979 33.991412 -0.477864
2006-02-23 13:02:31 51°34.592 2°35.932 -999 3.269389 33.940577 -0.477864
2006-02-23 13:03:31 51°34.378 2°35.919 -999 3.258834 33.875797 -0.511574
2006-02-23 13:04:31 51°34.162 2°35.924 -999 3.254074 33.840505 -0.477864
2006-02-23 13:05:31 51°33.948 2°35.928 -999 3.254177 33.838761 -0.511574
2006-02-23 13:06:31 51°33.734 2°35.935 -999 3.252729 33.830866 -0.511574
2006-02-23 13:07:31 51°33.523 2°35.889 -999 3.244864 33.776355 -0.511574
2006-02-23 13:08:32 51°33.307 2°35.823 -999 3.243829 33.768326 -0.511574
2006-02-23 13:09:31 51°33.102 2°35.741 -999 3.246002 33.783619 -0.511574
2006-02-23 13:10:31 51°32.89 2°35.676 -999 3.245795 33.77634 -0.511574
2006-02-23 13:11:31 51°32.671 2°35.654 -999 3.240932 33.744668 -0.511574
2006-02-23 13:12:31 51°32.455 2°35.671 -999 3.234309 33.703403 -0.545283
2006-02-23 13:13:32 51°32.24 2°35.691 -999 3.209475 33.54324 -0.545283
2006-02-23 13:14:32 51°32.033 2°35.736 -999 3.184539 33.385917 -0.545283
2006-02-23 13:15:32 51°31.825 2°35.772 -999 3.165605 33.257573 -0.545283
2006-02-23 13:16:31 51°31.617 2°35.808 -999 3.176986 33.331364 -0.545283
2006-02-23 13:17:32 51°31.409 2°35.9 -999 3.165502 33.264176 -0.545283
2006-02-23 13:18:31 51°31.21 2°36.004 -999 3.166536 33.261577 -0.578993
2006-02-23 13:19:31 51°31.012 2°36.126 -999 3.147499 33.123769 -0.578993
2006-02-23 13:20:31 51°30.813 2°36.25 -999 3.141085 33.080168 -0.578993
2006-02-23 13:21:31 51°30.614 2°36.386 -999 3.141085 33.0753 -0.578993
2006-02-23 13:22:31 51°30.425 2°36.548 -999 3.142533 33.082449 -0.578993
2006-02-23 13:23:31 51°30.24 2°36.717 -999 3.140981 33.068254 -0.578993
2006-02-23 13:24:31 51°30.059 2°36.896 -999 3.136222 33.037094 -0.612702
2006-02-23 13:25:31 51°29.875 2°37.065 -999 3.142223 33.071048 -0.612702
2006-02-23 13:26:31 51°29.688 2°37.232 -999 3.157121 33.175426 -0.612702
2006-02-23 13:27:31 51°29.503 2°37.399 -999 3.179572 33.324348 -0.612702
2006-02-23 13:28:31 51°29.315 2°37.565 -999 3.152362 33.133668 -0.612702
2006-02-23 13:29:31 51°29.126 2°37.73 -999 3.135291 33.014569 -0.612702
2006-02-23 13:30:31 51°28.939 2°37.897 -999 3.13105 32.984548 -0.612702
2006-02-23 13:31:31 51°28.749 2°38.067 -999 3.127635 32.959301 -0.612702
2006-02-23 13:32:31 51°28.558 2°38.232 -999 3.127532 32.957123 -0.612702
2006-02-23 13:33:31 51°28.369 2°38.405 -999 3.12867 32.963598 -0.612702
2006-02-23 13:34:31 51°28.183 2°38.585 -999 3.128877 32.962126 -0.612702
2006-02-23 13:35:31 51°27.997 2°38.764 -999 3.11429 32.862754 -0.612702
2006-02-23 13:36:31 51°27.81 2°38.937 -999 3.110876 32.827734 -0.612702
2006-02-23 13:37:31 51°27.627 2°39.121 -999 3.107048 32.797564 -0.612702
2006-02-23 13:38:31 51°27.439 2°39.297 -999 3.103531 32.770035 -0.612702
2006-02-23 13:39:31 51°27.252 2°39.471 -999 3.097634 32.723392 -0.612702
2006-02-23 13:40:31 51°27.065 2°39.645 -999 3.094428 32.69945 -0.612702
2006-02-23 13:41:31 51°26.877 2°39.815 -999 3.091531 32.671387 -0.612702
2006-02-23 13:42:31 51°26.688 2°39.99 -999 3.090083 32.657353 -0.646411
2006-02-23 13:43:31 51°26.499 2°40.161 -999 3.0876 32.638952 -0.612702
2006-02-23 13:44:31 51°26.311 2°40.332 -999 3.086979 32.627829 -0.612702
2006-02-23 13:45:31 51°26.124 2°40.502 -999 3.086669 32.6242 -0.646411
2006-02-23 13:46:31 51°25.937 2°40.672 -999 3.061015 32.401148 -0.612702
2006-02-23 13:47:31 51°25.751 2°40.843 -999 3.050671 32.299258 -0.612702
2006-02-23 13:48:31 51°25.565 2°41.018 -999 3.047567 32.269638 -0.612702
2006-02-23 13:49:31 51°25.374 2°41.185 -999 3.045809 32.247135 -0.646411
2006-02-23 13:50:31 51°25.187 2°41.354 -999 3.04374 32.217177 -0.612702
2006-02-23 13:51:31 51°24.999 2°41.521 -999 3.037844 32.150094 -0.612702
2006-02-23 13:52:31 51°24.813 2°41.691 -999 3.035672 32.126588 -0.612702
2006-02-23 13:53:31 51°24.625 2°41.853 -999 3.036499 32.137224 -0.646411
2006-02-23 13:54:31 51°24.439 2°42.019 -999 3.037844 32.155824 -0.646411
2006-02-23 13:55:31 51°24.252 2°42.182 -999 3.040223 32.176977 -0.646411
2006-02-23 13:56:31 51°24.064 2°42.344 -999 3.043119 32.202263 -0.646411
2006-02-23 13:57:31 51°23.879 2°42.51 -999 3.041568 32.177424 -0.612702
2006-02-23 13:58:31 51°23.694 2°42.671 -999 3.040223 32.145477 -0.646411
2006-02-23 13:59:31 51°23.505 2°42.83 -999 3.039085 32.131223 -0.646411
2006-02-23 14:00:31 51°23.316 2°42.991 -999 3.039395 32.119606 -0.612702
2006-02-23 14:01:31 51°23.126 2°43.154 -999 3.04136 32.12733 -0.646411
2006-02-23 14:02:31 51°22.938 2°43.316 -999 3.043326 32.134096 -0.646411
2006-02-23 14:03:31 51°22.748 2°43.477 -999 3.04167 32.110972 -0.612702
2006-02-23 14:04:31 51°22.558 2°43.639 -999 3.03743 32.074775 -0.612702
2006-02-23 14:05:31 51°22.366 2°43.8 -999 3.037636 32.076239 -0.612702
2006-02-23 14:06:31 51°22.175 2°43.96 -999 3.036602 32.060365 -0.612702
2006-02-23 14:07:31 51°21.986 2°44.12 -999 3.036292 32.0482 -0.578993
2006-02-23 14:08:31 51°21.798 2°44.283 -999 3.037016 32.061396 -0.578993
2006-02-23 14:09:31 51°21.607 2°44.444 -999 3.038671 32.077862 -0.578993
2006-02-23 14:10:31 51°21.421 2°44.61 -999 3.034636 32.010878 -0.545283
2006-02-23 14:11:31 51°21.234 2°44.774 -999 3.023052 31.884315 -0.545283
2006-02-23 14:12:31 51°21.056 2°44.96 -999 3.020879 31.851451 -0.578993
2006-02-23 14:13:31 51°20.886 2°45.159 -999 3.017363 31.832138 -0.578993
2006-02-23 14:14:31 51°20.741 2°45.395 -999 3.015708 31.809075 -0.578993
2006-02-23 14:15:31 51°20.614 2°45.655 -999 3.017156 31.810885 -0.545283
2006-02-23 14:16:31 51°20.484 2°45.912 -999 3.020259 31.843276 -0.578993
2006-02-23 14:17:31 51°20.355 2°46.166 -999 3.02481 31.881221 -0.578993
2006-02-23 14:18:31 51°20.224 2°46.419 -999 3.023672 31.862312 -0.545283
2006-02-23 14:19:31 51°20.094 2°46.67 -999 3.018914 31.822899 -0.545283
2006-02-23 14:20:31 51°19.962 2°46.926 -999 3.014467 31.792723 -0.511574
2006-02-23 14:21:31 51°19.832 2°47.183 -999 3.010639 31.738722 -0.511574
2006-02-23 14:22:31 51°19.701 2°47.441 -999 3.007123 31.691188 -0.511574
2006-02-23 14:23:31 51°19.568 2°47.697 -999 2.999572 31.610756 -0.477864
2006-02-23 14:24:31 51°19.435 2°47.953 -999 2.994091 31.577778 -0.477864
2006-02-23 14:25:31 51°19.3 2°48.207 -999 2.979817 31.391984 -0.477864
2006-02-23 14:26:31 51°19.167 2°48.46 -999 2.995848 31.541262 -0.477864
2006-02-23 14:27:31 51°19.038 2°48.716 -999 2.997296 31.532929 -0.511574
2006-02-23 14:28:31 51°18.908 2°48.97 -999 2.995435 31.519671 -0.511574
2006-02-23 14:29:31 51°18.778 2°49.223 -999 2.996676 31.57984 -0.511574
2006-02-23 14:30:31 51°18.651 2°49.479 -999 2.996573 31.580505 -0.444155
2006-02-23 14:31:31 51°18.521 2°49.736 -999 2.98592 31.458351 -0.444155
2006-02-23 14:32:31 51°18.393 2°49.994 -999 2.977232 31.396294 -0.444155
2006-02-23 14:33:31 51°18.27 2°50.261 -999 2.953134 31.101005 -0.477864
2006-02-23 14:34:31 51°18.135 2°50.515 -999 2.93969 30.965807 -0.477864
2006-02-23 14:35:31 51°18.002 2°50.772 -999 2.93845 30.97985 -0.477864
2006-02-23 14:36:31 51°17.868 2°51.027 -999 2.929349 30.868448 -0.477864
2006-02-23 14:37:31 51°17.734 2°51.282 -999 2.925833 30.83487 -0.477864
2006-02-23 14:38:31 51°17.604 2°51.542 -999 2.91818 30.749513 -0.477864
2006-02-23 14:39:31 51°17.471 2°51.802 -999 2.924075 30.857464 -0.444155
2006-02-23 14:40:31 51°17.335 2°52.059 -999 2.920973 30.799359 -0.444155
2006-02-23 14:41:31 51°17.2 2°52.313 -999 2.921903 30.792815 -0.410446
2006-02-23 14:42:31 51°17.082 2°52.583 -999 2.922938 30.824974 -0.410446
2006-02-23 14:43:31 51°16.999 2°52.882 -999 2.912389 30.706781 -0.410446
2006-02-23 14:44:30 51°16.975 2°53.186 -999 2.917043 30.756368 -0.376736
2006-02-23 14:45:31 51°16.946 2°53.47 -999 2.924075 30.824483 -0.241899
2006-02-23 14:46:31 51°16.888 2°53.562 -999 2.933486 30.94228 -0.073352
2006-02-23 14:47:31 51°16.868 2°53.56 -999 2.931107 30.915502 -0.14077
2006-02-23 14:48:31 51°16.85 2°53.553 -999 2.929866 30.900136 -0.14077
2006-02-23 14:49:31 51°16.832 2°53.543 -999 2.929556 30.898359 -0.14077
2006-02-23 14:50:31 51°16.815 2°53.531 -999 2.929453 30.89165 -0.107061
2006-02-23 14:51:31 51°16.798 2°53.517 -999 2.928418 30.885115 -0.107061
2006-02-23 14:52:31 51°16.781 2°53.504 -999 2.928108 30.881503 -0.107061
2006-02-23 14:53:31 51°16.765 2°53.492 -999 2.927695 30.874853 -0.14077
2006-02-23 14:54:30 51°16.749 2°53.478 -999 2.92666 30.860065 -0.14077
2006-02-23 14:55:31 51°16.733 2°53.464 -999 2.926971 30.857262 -0.17448
2006-02-23 14:56:31 51°16.717 2°53.447 -999 2.926867 30.855143 -0.17448
2006-02-23 14:57:31 51°16.701 2°53.427 -999 2.919835 30.76054 -0.275608
2006-02-23 14:58:31 51°16.686 2°53.405 -999 2.915078 30.696124 -0.309317
2006-02-23 14:59:31 51°16.671 2°53.381 -999 2.912492 30.663352 -0.343027
2006-02-23 15:00:31 51°16.656 2°53.356 -999 2.910734 30.640199 -0.376736
2006-02-23 15:01:31 51°16.642 2°53.331 -999 2.908149 30.604722 -0.410446
2006-02-23 15:02:31 51°16.628 2°53.304 -999 2.907218 30.585751 -0.410446
2006-02-23 15:03:31 51°16.614 2°53.277 -999 2.904943 30.548473 -0.410446
2006-02-23 15:04:31 51°16.599 2°53.25 -999 2.903909 30.53014 -0.410446
2006-02-23 15:05:31 51°16.584 2°53.222 -999 2.902668 30.513033 -0.410446
2006-02-23 15:06:31 51°16.565 2°53.197 -999 2.901737 30.499527 -0.444155
2006-02-23 15:07:31 51°16.459 2°53.233 -999 2.899256 30.474354 -0.444155
2006-02-23 15:08:31 51°16.276 2°53.315 -999 2.893258 30.436359 -0.410446
2006-02-23 15:09:31 51°16.07 2°53.414 -999 2.879816 30.284873 -0.410446
2006-02-23 15:10:31 51°15.868 2°53.533 -999 2.866891 30.180628 -0.410446
2006-02-23 15:11:31 51°15.668 2°53.656 -999 2.868442 30.179811 -0.410446
2006-02-23 15:12:31 51°15.477 2°53.803 -999 2.872785 30.232907 -0.410446
2006-02-23 15:13:31 51°15.312 2°53.976 -999 2.874956 30.23388 -0.376736
2006-02-23 15:14:32 51°15.168 2°54.136 -999 2.874853 30.252424 -0.376736
2006-02-23 15:15:30 51°15.056 2°54.287 -999 2.874232 30.248814 -0.343027
2006-02-23 15:16:31 51°14.937 2°54.427 -999 2.876197 30.275218 -0.343027
2006-02-23 15:17:31 51°14.839 2°54.533 -999 2.884159 30.366786 -0.208189
2006-02-23 15:18:31 51°14.749 2°54.622 -999 2.879506 30.308243 -0.17448
2006-02-23 15:19:31 51°14.604 2°54.764 -999 2.873198 30.243994 -0.17448
2006-02-23 15:20:31 51°14.434 2°54.948 -999 2.868855 30.198955 -0.14077
2006-02-23 15:21:31 51°14.304 2°55.194 -999 2.795653 29.384603 -0.14077
2006-02-23 15:22:31 51°14.172 2°55.376 -999 1.080546 8.023729 -0.612702
2006-02-23 15:23:32 51°14.045 2°55.471 -999 0.128159 0.80785 -0.612702
2006-02-23 15:24:31 51°13.948 2°55.543 -999 0.063128 0.383152 -0.612702
2006-02-23 15:25:31 51°13.853 2°55.613 -999 0.057366 0.347145 -0.578993
2006-02-23 15:26:31 51°13.768 2°55.701 -999 0.055103 0.341181 -0.578993
2006-02-23 15:27:32 51°13.703 2°55.807 -999 0.053559 0.33805 -0.578993
2006-02-23 15:28:31 51°13.663 2°55.896 -999 0.052839 0.334774 -0.545283
2006-02-23 15:29:31 51°13.638 2°55.967 -999 0.053353 0.332368 -0.545283
2006-02-23 15:30:31 51°13.621 2°56.023 -999 0.053148 0.335445 -0.511574
2006-02-23 15:31:31 51°13.611 2°56.06 -999 0.051913 0.335452 -0.511574
2006-02-23 15:32:31 51°13.605 2°56.079 -999 0.050679 0.334593 -0.477864